Regional Weather Roundup
Issued by NWS

Home | Current Version | Previous Version | Graphics & Text | Print | Product List | Glossary Off
Versions: 1 2 3 4 5 6 7 8 9 10 11 12 13 14 15 16 17 18 19 20 21 22 23 24 25 26 27 28 29 30 31 32 33 34 35 36 37 38 39 40 41 42 43 44 45 46 47 48 49 50

000
ASUS43 KDMX 271208
RWRIA

WEATHER ROUNDUP FOR IOWA
NATIONAL WEATHER SERVICE DES MOINES IA
700 AM CDT FRI MAY 27 2016

NOTE: "FAIR" INDICATES FEW OR NO CLOUDS BELOW 12,000 FEET WITH NO
SIGNIFICANT WEATHER AND/OR OBSTRUCTIONS TO VISIBILITY.

* - THESE STATIONS ARE NOT NWS STATIONS...THUS NOT UNDER NWS
QUALITY CONTROL.  THEY ALSO DO NOT REPORT WEATHER SUCH
AS PRECIPITATION OR FOG.

IAZ001>003-012>014-020>022-031>034-043>046-271300-
   NORTHWEST IOWA

CITY           SKY/WX    TMP DP  RH WIND       PRES   REMARKS
CARROLL *      CLOUDY    63  61  94 SE7       29.75F
CHEROKEE *     CLOUDY    60  58  92 E6        29.74F
LE MARS *      CLOUDY    63  57  82 E6        29.74F
ORANGE CITY *  CLOUDY    61  55  82 E3        29.75S
SHELDON *      CLOUDY    59  57  94 E6        29.74F
SIOUX CITY     CLOUDY    64  57  78 E8        29.72S
6HR MIN TEMP:  60; 6HR MAX TEMP:  65;

SPENCER        CLOUDY    59  55  87 E6        29.77R
6HR MIN TEMP:  56; 6HR MAX TEMP:  63;

STORM LAKE *   CLOUDY    61  57  88 SE7       29.75F
$$

IAZ055>058-069>071-079>083-090>094-271300-
   SOUTHWEST IOWA

CITY           SKY/WX    TMP DP  RH WIND       PRES   REMARKS
ATLANTIC *     SUNNY     61  59  94 E10       29.72S
AUDUBON *        N/A     61  57  88 NE7       29.75F
CLARINDA *       N/A     63  61  94 MISG      29.67F
COUNCIL BLFS * SUNNY     61  59  94 CALM      29.74R
CRESTON *      CLOUDY    61  61 100 N7        29.76S
HARLAN  *      MOSUNNY   61  59  94 NE6G14    29.77R
LAMONI         CLOUDY    60  60 100 NE8       29.73F
6HR MIN TEMP:  60; 6HR MAX TEMP:  61; 6HR PCP:  0.36;

RED OAK *      MOSUNNY   63  59  88 NE8       29.71R
SHENANDOAH *   SUNNY     63  63 100 NW7       29.71R
$$

IAZ047>049-059>061-072>074-084-271300-
   CENTRAL IOWA

CITY           SKY/WX    TMP DP  RH WIND       PRES   REMARKS
AMES           CLOUDY    63  60  90 E6        29.77F
6HR MIN TEMP:  61; 6HR MAX TEMP:  66; 6HR PCP:  0.02;

ANKENY *       CLOUDY    63  63 100 E8        29.76F
BOONE *        CLOUDY    63  61  94 E10       29.76F
CHARITON *     DRIZZLE   63  61  94 NE7       29.76F
DES MOINES     CLOUDY    64  60  87 E7        29.76F
6HR MIN TEMP:  63; 6HR MAX TEMP:  65; 6HR PCP: TRACE;

GRINNELL*      CLOUDY    63  61  94 E8        29.80F
KNOXVILLE *    CLOUDY    63  61  94 NE6       29.77F
MARSHALLTOWN   CLOUDY    62  60  93 E9        29.80F
6HR MIN TEMP:  62; 6HR MAX TEMP:  68; 6HR PCP: TRACE;

NEWTON *       CLOUDY    63  63 100 E7        29.78F
PELLA *        CLOUDY    63  60  89 E3        29.80F
PERRY *        PTSUNNY   63  61  94 E7        29.76F
$$

IAZ004>006-015-016-023>025-035-036-271300-
   NORTH CENTRAL IOWA

CITY           SKY/WX    TMP DP  RH WIND       PRES   REMARKS
ALGONA *       CLOUDY    63  59  88 SE8       29.78S
CLARION *      CLOUDY    63  59  88 E14       29.79S
ESTHERVILLE    MOSUNNY   60  57  89 SE7       29.77R
6HR MIN TEMP:  57; 6HR MAX TEMP:  61;

FORT DODGE *   CLOUDY    63  55  77 SE3       29.78R
MASON CITY     CLOUDY    62  58  86 SE9       29.82S
6HR MIN TEMP:  61; 6HR MAX TEMP:  63; 6HR PCP: TRACE;

FOREST CITY *  DRIZZLE   61  57  88 SE7       29.81R
WEBSTER CITY * CLOUDY    63  61  94 E7        29.76S
IOWA FALLS *   CLOUDY    63  59  88 E9        29.81F
$$

IAZ007>011-017>019-026>030-037>042-050>054-066-271300-
   NORTHEAST IOWA

CITY           SKY/WX    TMP DP  RH WIND       PRES   REMARKS
CEDAR RAPIDS   CLOUDY    63  62  97 CALM      29.82R
6HR MIN TEMP:  62; 6HR MAX TEMP:  65; 6HR PCP:  0.04;

CHARLES CITY * CLOUDY    63  63 100 SE5       29.83F
CLINTON *      CLOUDY    66  61  84 SE12      29.85R
DECORAH *      CLOUDY    63  63 100 E8G15     29.82F
DUBUQUE        CLOUDY    63  61  93 NE5       29.83R
6HR MIN TEMP:  60; 6HR MAX TEMP:  70; 6HR PCP:  0.12;

MONTICELLO *   CLOUDY    63  61  94 NW5       29.84R
OELWEIN *      CLOUDY    63  63 100 NE6       29.82F
WATERLOO       CLOUDY    63  60  90 CALM      29.81F
6HR MIN TEMP:  62; 6HR MAX TEMP:  66; 6HR PCP:  0.05;

$$

IAZ064-065-067-068-078-271300-
   EAST CENTRAL IOWA

CITY           SKY/WX    TMP DP  RH WIND       PRES   REMARKS
DAVENPORT      CLOUDY    65  61  87 S14       29.84R
6HR MIN TEMP:  63; 6HR MAX TEMP:  70; 6HR PCP:  0.24;

IOWA CITY      PTSUNNY   64  61  90 CALM      29.83S
6HR MIN TEMP:  62; 6HR MAX TEMP:  68; 6HR PCP:  0.05;

MT. PLEASANT * CLOUDY    67  66  97 SE14      29.80F
MUSCATINE *    CLOUDY    66  61  82 SE10      29.81F
QUAD CITIES    CLOUDY    66  61  84 S12       29.82S
6HR MIN TEMP:  64; 6HR MAX TEMP:  73; 6HR PCP:  0.32;

$$

IAZ062-063-075>077-085>089-095>099-271300-
   SOUTHEAST IOWA

CITY           SKY/WX    TMP DP  RH WIND       PRES   REMARKS
BURLINGTON     PTSUNNY   65  64  97 SE10      29.81F
6HR MIN TEMP:  63; 6HR MAX TEMP:  65; 6HR PCP:  0.16;

FAIRFIELD *      N/A    N/A N/A N/A MISG        N/A
FORT MADISON * MOSUNNY   64  63  94 SE6       29.82F
KEOKUK *       PTSUNNY   66  64  94 SE8       29.81S
OSKALOOSA *    CLOUDY    62  60  93 NE5       29.79F
OTTUMWA        CLOUDY    63  61  93 E3        29.78F
6HR MIN TEMP:  60; 6HR MAX TEMP:  63; 6HR PCP:  0.01;

WASHINGTON *   PTSUNNY   64 N/A N/A E6        29.80F
$$

ABBREVIATIONS USED IN REMARKS
   TC - TEMPERATURES IN CELSIUS
  WCI - WIND CHILL INDEX
   HX - HEAT INDEX
  VSB - VISIBILITY
$$




USA.gov is the U.S. government's official web portal to all federal, state and local government web resources and services.